NOAA 16 DEB

Satellite information

Favourite Embed

Satellite Type and Status

DEBRISIN ORBIT

Key statistics

Satellite NOAA 16 DEB at a glance.

Uptime

9162

Days in orbit

Revolutions

≈ 14.2

Per day

Orbit

SSO

Sun Synchronous Orbit

Inclination

98.5

Latest

Satellite identification and parameters

Extended collection of information and parameters for NOAA 16 DEB.

Object identification

Identified? True

Debris? True

Object name: NOAA 16 DEB

International designator: 2000-055AA

Object number (NORAD): 41067

Object ID (CCSDS): 41067

Country: UNITED STATES OF AMERICA (US)

Current information (Y/N): Y

RCS size: SMALL

Orbital parameters

Period: 101.593 minutes

Inclination: 98.5484 deg

SMA: 7212.221 km

Apoapsis: 836.394 km

Periapsis: 831.778 km

RAAN: 331.3873 deg

Eccentricy: 0.00032005

Argument of periapsis: 236.8406 deg

Mean anomaly: 123.2463 deg

Mean motion: 14.17422221 rev/day

Mean motion (dot): 0.00001845 rev/day2

B* drag term: 0.00093132346 1/REarth

Two-line elements (TLE)

Creation date: Oct. 20, 2025, 6:08 p.m.

Reference frame: TEME

Reference center: EARTH

Epoch: Oct. 20, 2025, 1:10 p.m. UTC

TLE line 0: 0 NOAA 16 DEB

TLE line 1: 1 41067U 00055AA 25293.54922044 .00001845 00000-0 93132-3 0 9998

TLE line 2: 2 41067 98.5484 331.3873 0003201 236.8406 123.2463 14.17422221510857

Live tracking on map

Real-time ground track for satellite NOAA 16 DEB.

In-orbit conjunctions

A list of the most updated potential collisions computed for object NOAA 16 DEB.

Target Orbit TCA Probability of collision Miss distance Type
CZ-6A DEB LEO 2025-03-28 22:41:18 0.0001447105 234.0 (m) DEBRIS
CZ-6A DEB LEO 2025-01-24 20:50:40 0.0002485012 848.0 (m) DEBRIS

Associated space launch

The NOAA K, L and M POES satellites begin the fifth generation of improved environmental monitoring in support of NOAA missions. The instrument payload has significant improvements and additions/deletions. The instrument changes have effected the spacecraft subsystems and data formats.

NOAA 16 DEB was lifted into orbit during the mission ‘Titan II SLV | NOAA 16’, on board a Titan II SLV space rocket.

The launch took place on Sept. 21, 2000, 10:22 a.m. from Space Launch Complex 4W.

For more information about the launch, click the button.

Launch to space Titan II SLV | NOAA 16
Titan II SLV | NOAA 16

Agency: N/A

Status: Launch Successful

Launch date: Sept. 21, 2000, 10:22 a.m. UTC

Rocket: Titan II SLV

Launch pad: Space Launch Complex 4W

Location: Vandenberg SFB, CA, USA

...

Latest news about this satellite

There are no fresh news available about this satellite. Check back as we update our databases every day.


Newsletter sign-up

Weekly statistics, charts and insights to help you stay on top of the space industry.